User: anonymous   Login
Location: Valdosta
(30.8330°N, 83.2790°W)
Time: 13:03:47
(UTC-04:00)
Language:

Oscar 19 - Orbit

View from above orbital plane
View from above orbital plane
View from above satellite
View from above satellite

Ground track
Ground track

The orbit data is extracted from the following two-line orbital elements,

1 20442U 90005G   16271.85854992  .00000041  00000-0  31030-4 0  9999
2 20442  98.5483 205.3944 0011289 197.6398 162.4395 14.32831037394055
Epoch (UTC): 27 September 2016 20:36:18
Eccentricity: 0.0011289
inclination: 98.5483°
perigee height: 774 km
apogee height: 790 km
right ascension of ascending node: 205.3944°
argument of perigee: 197.6398°
revolutions per day: 14.32831037
mean anomaly at epoch: 162.4395°
orbit number at epoch: 39405

The dashed part of the orbit path shows where the satellite is in the earth's shadow,  

DLR